User: anonymous   Login
Location: Cheyres
(46.8153°N, 6.7877°E)
Time: 00:01:38
(UTC+00:00)
Language:

Cosmos 1536 - Orbit

View from above orbital plane
View from above orbital plane
View from above satellite
View from above satellite

Ground track
Ground track

The orbit data is extracted from the following two-line orbital elements,

1 14699U 84013A   21217.51208311  .00000361  00000-0  22871-4 0  9993
2 14699  82.5262 306.4364 0011102 307.0151  53.0059 15.05850518 40323
Epoch (UTC): 05 August 2021 12:17:23
Eccentricity: 0.0011102
inclination: 82.5262°
perigee height: 541 km
apogee height: 556 km
right ascension of ascending node: 306.4364°
argument of perigee: 307.0151°
revolutions per day: 15.05850518
mean anomaly at epoch: 53.0059°
orbit number at epoch: 4032

The dashed part of the orbit path shows where the satellite is in the earth's shadow,  

DLR